Location: Unspecified
(0.0000°N, 0.0000°E)
Time: 07:48:15
(UTC+00:00)

Explorer 7 - All Passes

Search period start: 08 February 2023 00:00
Search period end: 18 February 2023 00:00
Orbit: 480 x 660 km, 50.3° (Epoch: 07 February)

Date Brightness Start Highest point End Pass type
(mag) Time Alt. Az. Time Alt. Az. Time Alt. Az.
08 Feb - 06:14:35 10° S 06:17:36 23° SE 06:20:38 10° ENE daylight
08 Feb - 07:55:33 10° W 07:57:37 14° NW 07:59:42 10° NNW daylight
08 Feb - 18:13:30 10° NNW 18:17:59 41° NE 18:22:30 10° ESE daylight
08 Feb - 19:55:22 10° W 19:58:11 15° SW 20:00:58 10° SSW visible
09 Feb - 06:14:52 10° SSW 06:18:29 48° SE 06:22:04 10° NE daylight
09 Feb - 18:14:04 10° NNW 18:18:49 77° NE 18:23:37 10° SE daylight
10 Feb - 06:15:36 10° SW 06:19:19 75° NW 06:23:01 10° NNE daylight
10 Feb - 16:38:10 10° NE 16:39:27 11° NE 16:40:43 10° ENE daylight
10 Feb - 18:14:58 10° NW 18:19:39 58° SW 18:24:22 10° SSE daylight
11 Feb - 06:16:44 10° WSW 06:20:09 34° NW 06:23:32 10° NNE daylight
11 Feb - 16:36:53 10° N 16:40:18 20° NE 16:43:47 10° E daylight
11 Feb - 18:16:14 10° WNW 18:20:28 32° SW 18:24:44 10° S daylight
12 Feb - 04:38:11 10° S 04:40:58 19° SE 04:43:43 10° E visible
12 Feb - 06:18:27 10° W 06:20:58 17° NW 06:23:28 10° N daylight
12 Feb - 16:36:51 10° NNW 16:41:07 34° NE 16:45:29 10° ESE daylight
12 Feb - 18:18:02 10° W 18:21:19 18° SW 18:24:36 10° S daylight
13 Feb - 04:38:15 10° SSW 04:41:48 39° SE 04:45:16 10° ENE visible
13 Feb - 16:37:15 10° NNW 16:41:54 64° NE 16:46:39 10° SE daylight
13 Feb - 18:21:54 10° SW 18:22:10 10° SW 18:22:26 10° SW daylight
14 Feb - 04:38:48 10° SW 04:42:35 86° SE 04:46:18 10° NE visible
14 Feb - 16:38:00 10° NW 16:42:40 70° SW 16:47:27 10° SSE daylight
15 Feb - 04:39:45 10° SW 04:43:22 42° NW 04:46:53 10° NNE visible
15 Feb - 15:00:25 10° NNE 15:03:18 16° NE 15:06:15 10° E daylight
15 Feb - 16:39:05 10° WNW 16:43:27 38° SW 16:47:54 10° SSE daylight
16 Feb - 03:01:36 10° S 03:04:06 16° SE 03:06:32 10° E night (unlit)
16 Feb - 04:41:12 10° WSW 04:44:07 21° NW 04:46:59 10° N visible
16 Feb - 15:00:04 10° N 15:04:03 28° NE 15:08:09 10° ESE daylight
16 Feb - 16:40:38 10° WNW 16:44:13 21° SW 16:47:53 10° S daylight
17 Feb - 03:01:24 10° SSW 03:04:53 32° SE 03:08:15 10° ENE night (unlit)
17 Feb - 04:43:53 10° WNW 04:44:52 11° NW 04:45:51 10° NW night (unlit)
17 Feb - 15:00:18 10° NNW 15:04:46 52° NE 15:09:25 10° SE daylight
17 Feb - 16:43:10 10° WSW 16:45:02 12° SW 16:46:55 10° SSW daylight
